If you wish to contribute or participate in the discussions about articles you are invited to join SKYbrary as a registered user

 Actions

Arad International Airport

From SKYbrary Wiki

LRAR
Airport
ICAO: LRAR – IATA: ARW
Summary
Name Arad International Airport
Region
Territory Romania RO.gif
Location , Arad
Serving Arad
Elevation 107.29 m
352 ft
352 ft107.29 m
Type medium airport
Coordinates 46° 10' 35.58" N, 21° 15' 43.28" E
Runways
Designator Length Width Surface ROPS
9/27 2000 m6,561.68 ft
45 m147.638 ft
CON /


METAR
Observation LRAR 061330Z 13004KT 070V210 CAVOK 25/12 Q1008
Station Arad
Date/Time 06 June 2020 13:30:00
Wind direction 130°
Wind speed 04 kts
Lowest cloud amount clouds and visibility OK
Temperature 25°C
Dew point 12°C
Humidity 44%
QNH 1008 hPa
Weather condition n/a